This is the latest recevied weather packets stored in our database for station/object K7ZQU-7. If no packets are shown the sender has not sent any weather packets the latest 10 day(s).
| Time | Temp. | Humidity | Pressure | Rain* | Wind** | Luminosity | Snow |
|---|---|---|---|---|---|---|---|
| 1777819327 | 13.33° C | 52% | 1014.3 hPa | 0 mm | 1.34 m/s, 191° | - | - |
| 1777819028 | 13.33° C | 53% | 1014.3 hPa | 0 mm | 0.89 m/s, 210° | - | - |
| 1777818729 | 12.78° C | 53% | 1014.3 hPa | 0 mm | 1.79 m/s, 194° | - | - |
| 1777818430 | 12.78° C | 55% | 1014.3 hPa | 0 mm | 1.34 m/s, 159° | - | - |
| 1777818131 | 12.22° C | 56% | 1014.3 hPa | 0 mm | 0.89 m/s, 198° | - | - |
| 1777817829 | 11.67° C | 56% | 1014.1 hPa | 0 mm | 0.45 m/s, 191° | - | - |
| 1777817231 | 11.11° C | 58% | 1014 hPa | 0 mm | 1.34 m/s, 198° | - | - |
| 1777816932 | 10.56° C | 60% | 1014 hPa | 0 mm | 1.79 m/s, 217° | - | - |
| 1777816633 | 10.56° C | 60% | 1014 hPa | 0 mm | 0.89 m/s, 200° | - | - |
| 1777816331 | 10° C | 60% | 1014 hPa | 0 mm | 1.34 m/s, 156° | - | - |
| 1777816032 | 10° C | 61% | 1014.1 hPa | 0 mm | 1.34 m/s, 181° | - | - |
| 1777815733 | 10° C | 62% | 1014.1 hPa | 0 mm | 0.89 m/s, 204° | - | - |
| 1777815135 | 9.44° C | 64% | 1014 hPa | 0 mm | 1.34 m/s, 183° | - | - |
| 1777814833 | 9.44° C | 65% | 1013.9 hPa | 0 mm | 1.79 m/s, 208° | - | - |
| 1777814534 | 9.44° C | 64% | 1014 hPa | 0 mm | 0.89 m/s, 221° | - | - |
| 1777813936 | 9.44° C | 64% | 1013.9 hPa | 0 mm | 0.89 m/s, 207° | - | - |
| 1777813637 | 8.89° C | 65% | 1013.9 hPa | 0 mm | 0.45 m/s, 187° | - | - |
| 1777813335 | 8.89° C | 66% | 1013.9 hPa | 0 mm | 0 m/s | - | - |
| 1777813036 | 8.89° C | 66% | 1013.9 hPa | 0 mm | 0.89 m/s, 110° | - | - |
| 1777812737 | 8.89° C | 66% | 1013.9 hPa | 0 mm | 0.45 m/s, 239° | - | - |
| 1777812438 | 8.89° C | 65% | 1013.8 hPa | 0 mm | 1.79 m/s, 243° | - | - |
| 1777812139 | 8.89° C | 65% | 1013.9 hPa | 0 mm | 0.89 m/s, 139° | - | - |
| 1777811837 | 8.89° C | 65% | 1013.9 hPa | 0 mm | 1.34 m/s, 204° | - | - |
| 1777811538 | 8.89° C | 65% | 1014 hPa | 0 mm | 0.89 m/s, 186° | - | - |
| 1777811239 | 8.89° C | 65% | 1014 hPa | 0 mm | 0.89 m/s, 183° | - | - |
* Rain latest hour (hover to see other rain measurements)
** Current wind speed in m/s (hover to see current wind gust speed)